LKE9976 ZSPD-ZSAM

Flight info

Callsign LKE9976
Flight time N/A
Altitude 25600
Route NXD94D NXD W131 AKDIM A470 ENVEN ENVEN8X
Aircraft B738/M-SDE2E3FGHIRWXY/LB1

Departure

Time 2026-05-07 08:47
Airport Shanghai Pudong International Airport (ZSPD)

Arrival

Time N/A
Airport Xiamen Gaoqi International Airport (ZSAM)
Time Latitude Longitude Altitude Speed Heading
2026-05-07 08:33 31.13408 121.81489 18 ft 0 kts 262°
2026-05-07 08:37 31.13408 121.81491 18 ft 1 kts 262°
2026-05-07 08:38 31.13410 121.81509 18 ft 2 kts 262°
2026-05-07 08:38 31.13412 121.81526 18 ft 2 kts 262°
2026-05-07 08:38 31.13414 121.81543 18 ft 2 kts 262°
2026-05-07 08:38 31.13416 121.81559 18 ft 0 kts 262°
2026-05-07 08:39 31.13418 121.81567 18 ft 1 kts 225°
2026-05-07 08:39 31.13425 121.81571 18 ft 0 kts 172°
2026-05-07 08:39 31.13430 121.81569 18 ft 1 kts 159°
2026-05-07 08:39 31.13433 121.81568 18 ft 0 kts 163°
2026-05-07 08:41 31.13418 121.81574 18 ft 8 kts 162°
2026-05-07 08:41 31.13300 121.81622 18 ft 28 kts 158°
2026-05-07 08:42 31.13124 121.81665 18 ft 13 kts 223°
2026-05-07 08:42 31.13083 121.81566 18 ft 17 kts 249°
2026-05-07 08:42 31.13028 121.81377 20 ft 30 kts 252°
2026-05-07 08:42 31.12979 121.81201 21 ft 19 kts 252°
2026-05-07 08:43 31.12934 121.81035 21 ft 22 kts 252°
2026-05-07 08:43 31.12883 121.80859 19 ft 23 kts 252°
2026-05-07 08:43 31.12830 121.80669 18 ft 24 kts 251°
2026-05-07 08:43 31.12790 121.80528 20 ft 9 kts 251°
2026-05-07 08:44 31.12780 121.80493 21 ft 4 kts 250°
2026-05-07 08:44 31.12750 121.80389 21 ft 19 kts 252°
2026-05-07 08:44 31.12724 121.80235 21 ft 16 kts 298°
2026-05-07 08:44 31.12731 121.80201 21 ft 4 kts 332°
2026-05-07 08:45 31.12768 121.80139 21 ft 11 kts 258°
2026-05-07 08:45 31.12753 121.80051 21 ft 0 kts 253°
2026-05-07 08:45 31.12753 121.80050 21 ft 0 kts 253°
2026-05-07 08:45 31.12752 121.80047 21 ft 0 kts 253°
2026-05-07 08:46 31.12751 121.80043 21 ft 2 kts 252°
2026-05-07 08:46 31.12722 121.79918 21 ft 25 kts 278°
2026-05-07 08:46 31.12874 121.79825 21 ft 28 kts 341°
2026-05-07 08:46 31.13255 121.79681 21 ft 106 kts 344°
2026-05-07 08:47 31.14271 121.79298 146 ft 187 kts 343°
2026-05-07 08:47 31.15573 121.78764 951 ft 218 kts 342°
2026-05-07 08:47 31.17035 121.78160 1950 ft 226 kts 342°
2026-05-07 08:47 31.18401 121.77608 2625 ft 190 kts 341°
2026-05-07 08:48 31.19588 121.77135 2680 ft 172 kts 342°
2026-05-07 08:48 31.20728 121.76686 2694 ft 174 kts 342°
2026-05-07 08:48 31.21953 121.76199 2747 ft 209 kts 342°
2026-05-07 08:48 31.23418 121.75606 2698 ft 231 kts 341°
2026-05-07 08:49 31.24974 121.74968 2711 ft 242 kts 341°
2026-05-07 08:49 31.26579 121.74313 2729 ft 241 kts 341°
2026-05-07 08:49 31.28172 121.73671 2935 ft 246 kts 341°
2026-05-07 08:49 31.29785 121.73023 2960 ft 242 kts 341°
2026-05-07 08:50 31.31389 121.72382 2970 ft 243 kts 341°
2026-05-07 08:50 31.32947 121.71590 2976 ft 245 kts 326°
2026-05-07 08:50 31.34035 121.70072 2961 ft 248 kts 295°
2026-05-07 08:50 31.34322 121.68066 2954 ft 254 kts 269°
2026-05-07 08:51 31.34008 121.66053 2966 ft 255 kts 260°
2026-05-07 08:51 31.33629 121.64014 3152 ft 252 kts 262°
2026-05-07 08:51 31.33300 121.62033 3962 ft 255 kts 262°
2026-05-07 08:51 31.32973 121.59966 4510 ft 259 kts 262°
2026-05-07 08:52 31.32667 121.58070 4626 ft 255 kts 261°
2026-05-07 08:52 31.32459 121.56825 4696 ft 258 kts 261°
2026-05-07 08:52 31.32120 121.54798 5320 ft 255 kts 261°
2026-05-07 08:52 31.31793 121.52808 6502 ft 254 kts 260°
2026-05-07 08:53 31.31284 121.50826 7528 ft 261 kts 249°
2026-05-07 08:53 31.30512 121.48883 8440 ft 274 kts 245°
2026-05-07 08:53 31.29668 121.46905 9503 ft 277 kts 246°
2026-05-07 08:53 31.28841 121.44894 10645 ft 280 kts 247°
2026-05-07 08:54 31.28022 121.42806 11551 ft 291 kts 248°
2026-05-07 08:54 31.27176 121.40592 12212 ft 305 kts 248°
2026-05-07 08:54 31.26291 121.38254 12625 ft 324 kts 248°
2026-05-07 08:54 31.25351 121.35761 12779 ft 350 kts 248°
2026-05-07 08:55 31.24360 121.33151 13799 ft 354 kts 248°
2026-05-07 08:55 31.23364 121.30534 14752 ft 359 kts 248°
2026-05-07 08:55 31.22343 121.27852 15713 ft 363 kts 248°
2026-05-07 08:55 31.21316 121.25158 16578 ft 368 kts 248°
2026-05-07 08:56 31.20273 121.22422 17392 ft 374 kts 247°
2026-05-07 08:56 31.19221 121.19662 18230 ft 378 kts 248°
2026-05-07 08:56 31.18144 121.16840 18968 ft 385 kts 248°
2026-05-07 08:56 31.17060 121.14008 19792 ft 388 kts 248°
2026-05-07 08:57 31.15954 121.11118 20541 ft 393 kts 248°
2026-05-07 08:57 31.14835 121.08196 21257 ft 397 kts 248°
2026-05-07 08:57 31.13710 121.05261 21930 ft 402 kts 248°
2026-05-07 08:57 31.12553 121.02245 22555 ft 407 kts 249°
2026-05-07 08:58 31.11410 120.99265 23322 ft 408 kts 248°
2026-05-07 08:58 31.10236 120.96207 23980 ft 413 kts 248°
2026-05-07 08:58 31.09061 120.93145 24683 ft 415 kts 248°
2026-05-07 08:58 31.07882 120.90080 25338 ft 416 kts 248°
2026-05-07 08:59 31.06706 120.87022 25497 ft 421 kts 248°
2026-05-07 08:59 31.05510 120.83913 25498 ft 419 kts 248°
2026-05-07 08:59 31.04317 120.80820 25505 ft 418 kts 248°
2026-05-07 08:59 31.03126 120.77731 25495 ft 417 kts 248°
2026-05-07 09:00 31.01930 120.74636 25497 ft 416 kts 248°
2026-05-07 09:00 31.00744 120.71568 25494 ft 420 kts 248°
2026-05-07 09:00 30.99551 120.68481 25496 ft 420 kts 248°
2026-05-07 09:00 30.98351 120.65384 25494 ft 419 kts 248°
2026-05-07 09:01 30.97160 120.62309 25473 ft 419 kts 248°
2026-05-07 09:01 30.95966 120.59226 25455 ft 415 kts 248°
2026-05-07 09:01 30.94770 120.56145 25451 ft 417 kts 248°
2026-05-07 09:01 30.93587 120.53098 25451 ft 417 kts 248°
2026-05-07 09:02 30.92390 120.50022 25452 ft 415 kts 248°
2026-05-07 09:02 30.91132 120.46991 25462 ft 417 kts 245°
2026-05-07 09:02 30.89606 120.44101 25465 ft 419 kts 237°
2026-05-07 09:02 30.87670 120.41575 25476 ft 423 kts 228°
2026-05-07 09:03 30.85430 120.39363 25476 ft 425 kts 223°
2026-05-07 09:03 30.83045 120.37291 25474 ft 427 kts 220°
2026-05-07 09:03 30.80645 120.35324 25473 ft 428 kts 220°
2026-05-07 09:03 30.78172 120.33343 25473 ft 427 kts 219°
2026-05-07 09:04 30.75718 120.31387 25473 ft 427 kts 219°
2026-05-07 09:04 30.73265 120.29423 25476 ft 427 kts 219°
2026-05-07 09:04 30.70833 120.27459 25476 ft 428 kts 219°
2026-05-07 09:04 30.68394 120.25481 25476 ft 430 kts 219°
2026-05-07 09:05 30.65913 120.23455 25474 ft 444 kts 220°
2026-05-07 09:05 30.63358 120.21358 25473 ft 456 kts 219°
2026-05-07 09:05 30.60732 120.19202 25475 ft 466 kts 219°
2026-05-07 09:05 30.58065 120.17018 25479 ft 471 kts 219°
2026-05-07 09:06 30.55358 120.14806 25475 ft 471 kts 219°
2026-05-07 09:06 30.52673 120.12616 25477 ft 473 kts 219°
2026-05-07 09:06 30.50079 120.10500 25481 ft 472 kts 219°
2026-05-07 09:06 30.48272 120.09028 25480 ft 471 kts 219°
2026-05-07 09:07 30.45612 120.06863 25477 ft 473 kts 219°
2026-05-07 09:07 30.42907 120.04691 25478 ft 475 kts 218°
2026-05-07 09:07 30.40119 120.02644 25473 ft 474 kts 216°
2026-05-07 09:07 30.37268 120.00701 25471 ft 478 kts 214°
2026-05-07 09:08 30.34398 119.98816 25466 ft 478 kts 214°
2026-05-07 09:08 30.31509 119.96948 25470 ft 472 kts 214°
2026-05-07 09:08 30.28655 119.95109 25473 ft 469 kts 214°
2026-05-07 09:08 30.25787 119.93256 25472 ft 466 kts 214°
2026-05-07 09:09 30.22964 119.91418 25475 ft 468 kts 214°
2026-05-07 09:09 30.20129 119.89561 25475 ft 466 kts 214°
2026-05-07 09:09 30.17289 119.87690 25477 ft 468 kts 214°
2026-05-07 09:09 30.14458 119.85822 25478 ft 469 kts 214°
2026-05-07 09:10 30.11622 119.83949 25475 ft 469 kts 214°
2026-05-07 09:10 30.08820 119.82096 25475 ft 471 kts 214°
2026-05-07 09:10 30.05977 119.80216 25477 ft 468 kts 214°